Theta_e
320 323 324 325 331 327 324 324 322 322 322 321 321 321 321 320 321 322 324 326 330 332 337 338 334 338 342 340 340 339 339 340 341 340 340 339 338 337 335 333 322 322 325 333 328 337 344 342 343
321 323 324 327 327 324 323 321 322 321 320 319 320 320 321 321 320 319 320 326 328 331 335 340 338 338 341 340 339 338 338 338 339 339 339 339 338 337 335 335 334 323 325 332 333 337 343 341 342
321 321 328 325 322 323 323 321 321 320 319 319 319 319 318 319 318 317 322 324 326 331 334 338 339 338 339 339 339 339 338 337 337 339 339 339 337 336 335 336 336 334 333 333 332 337 342 340 341
321 323 323 324 321 321 321 320 319 319 319 318 318 319 319 317 317 317 318 322 325 329 332 336 337 338 337 338 339 339 338 337 336 336 339 338 336 335 335 336 335 337 338 338 334 335 341 340 340
319 322 324 322 321 320 320 319 318 319 319 319 318 319 319 318 315 315 316 318 323 325 330 333 334 335 336 337 337 337 337 337 336 335 334 334 334 334 334 336 335 335 336 338 338 337 340 340 339
322 320 323 322 320 319 319 318 318 319 318 318 317 317 318 316 315 315 315 316 319 324 327 331 332 330 336 337 338 338 337 336 335 334 333 332 331 335 336 335 334 332 333 336 337 339 340 340 340
322 322 322 321 320 321 319 317 318 318 318 317 316 317 318 316 313 313 315 318 319 321 326 328 330 332 329 332 336 338 337 336 335 334 332 331 329 330 332 334 332 331 332 335 337 339 339 339 339
321 321 321 321 320 321 318 317 317 317 318 314 314 316 316 313 312 312 313 313 314 318 322 324 327 330 332 333 332 332 334 336 336 334 332 331 330 331 330 331 330 330 332 334 336 339 339 338 337
319 323 321 319 320 320 318 318 318 316 315 315 314 315 314 313 310 310 309 309 309 309 310 314 321 325 328 331 332 333 332 335 336 334 331 330 330 332 332 332 332 334 332 333 334 337 338 336 335
321 322 320 318 318 319 318 317 316 316 317 315 314 315 311 308 307 308 307 307 306 307 308 308 310 316 324 329 329 332 333 333 333 334 333 331 331 330 331 332 332 331 332 333 332 335 337 336 333
320 320 318 317 317 317 316 316 314 315 316 313 314 313 308 306 305 305 305 304 305 306 307 308 309 309 314 322 328 330 331 332 333 333 333 332 331 330 331 331 331 331 332 333 331 333 334 332 326
318 317 317 317 315 315 315 314 315 315 313 310 312 308 306 305 304 303 303 303 303 304 305 306 310 311 311 316 322 326 329 330 331 331 332 332 331 331 330 331 331 332 331 331 330 328 324 328 329
318 317 315 314 314 314 314 314 314 314 311 311 308 305 305 304 303 302 301 301 301 302 302 302 304 310 314 314 317 321 325 328 329 331 330 330 330 331 330 330 331 329 329 330 328 325 324 320 322
317 315 315 313 314 313 314 314 313 314 309 309 305 304 304 303 302 301 300 300 300 300 300 300 302 304 307 315 317 317 321 324 325 328 328 329 329 329 330 329 329 328 329 329 328 326 325 322 319
314 316 315 314 313 313 314 314 314 312 307 309 305 304 303 302 301 300 299 299 299 299 299 299 300 302 304 307 311 318 319 320 324 324 327 327 328 328 328 329 328 327 327 328 326 325 324 323 322
316 316 316 315 313 313 313 313 314 309 308 307 303 302 302 302 301 299 298 298 298 298 299 298 299 300 303 306 308 311 318 319 319 322 322 325 326 327 327 328 327 327 326 326 324 322 323 322 322
318 318 317 314 313 313 313 314 315 307 307 303 302 301 300 301 301 299 298 296 296 297 299 298 298 299 301 304 308 309 312 316 319 319 321 322 323 326 326 326 326 326 324 323 321 321 320 321 321
314 314 315 316 313 314 314 313 310 305 304 301 300 299 299 299 300 299 297 295 295 296 298 297 296 297 298 302 305 306 307 310 312 315 321 322 322 324 325 326 325 326 324 322 321 320 321 320 321
313 315 315 313 314 312 310 309 308 302 301 301 299 298 297 297 296 295 295 295 294 295 296 296 295 296 296 299 303 304 303 302 305 310 311 322 322 322 325 325 324 325 323 322 321 321 321 321 321
314 313 311 312 313 310 308 308 306 301 298 299 298 297 297 296 295 295 294 294 294 294 294 296 295 294 295 297 300 302 302 300 301 307 310 308 321 322 321 324 323 323 322 321 321 320 320 320 319
312 310 312 311 310 309 308 308 306 300 298 298 298 297 296 295 295 295 294 293 293 293 294 294 294 294 294 295 297 298 301 300 300 299 302 306 307 321 321 321 322 321 321 320 319 319 320 318 318
311 308 308 308 309 308 307 307 308 302 301 298 298 297 296 295 295 294 294 293 293 293 293 293 294 293 293 294 295 296 297 301 299 299 299 302 305 307 320 320 320 321 320 319 319 318 318 317 317
310 304 306 307 308 307 307 307 309 307 306 298 297 295 294 294 294 293 293 293 293 293 293 293 293 293 293 294 294 294 296 298 300 299 299 300 304 305 304 320 320 319 319 318 318 317 317 316 317
303 306 305 306 306 308 308 305 307 306 301 297 296 295 294 294 293 293 292 292 293 293 293 293 293 292 293 293 293 294 294 295 298 299 299 299 302 305 307 317 319 318 318 317 317 317 317 316 316
305 305 306 312 314 314 304 302 303 299 296 296 295 294 293 293 293 293 294 293 293 292 292 292 292 291 291 291 292 293 293 294 295 298 298 298 298 298 302 306 316 317 317 317 317 316 316 316 316
304 303 304 306 309 308 303 301 303 299 296 296 295 293 293 292 293 293 293 292 292 291 290 289 287 289 289 290 291 292 292 294 294 297 298 298 298 298 299 302 304 318 317 317 316 316 316 315 315
306 304 302 302 303 300 303 302 299 298 296 296 294 293 292 292 292 293 292 291 290 290 288 286 283 282 282 282 283 284 288 293 293 295 297 297 297 297 296 296 304 303 317 317 316 316 316 315 314
299 300 300 299 301 304 304 302 301 297 296 294 293 292 292 292 292 292 291 290 290 287 284 282 280 279 278 278 280 281 283 286 287 294 296 297 296 296 295 295 298 305 314 316 315 315 315 314 314
297 297 295 296 298 298 300 302 297 295 295 293 292 292 292 292 292 291 290 290 287 284 282 280 279 278 278 278 279 280 281 282 284 287 295 296 296 296 295 295 295 300 301 315 314 314 313 313 313
294 296 296 296 298 295 296 297 297 296 295 293 292 291 292 292 291 290 290 288 285 283 281 279 278 277 277 277 277 278 279 280 283 285 288 294 296 296 296 293 293 295 301 309 313 313 312 312 313
Wind_Speed
5 2 2 4 4 5 4 4 4 4 5 7 5 7 12 11 8 7 2 5 4 3 5 9 13 17 18 19 20 19 18 18 17 15 14 13 13 14 14 14 14 15 15 13 14 14 15 19 21
3 2 4 3 4 1 5 3 5 7 8 7 7 6 7 9 8 10 11 9 6 6 7 8 13 17 19 20 20 20 19 19 18 17 15 15 14 14 14 14 14 14 15 15 15 15 17 20 22
1 3 4 3 2 4 2 2 4 4 2 4 5 1 6 7 8 5 8 9 7 8 8 9 16 18 19 20 21 20 21 20 20 17 16 16 16 16 16 16 16 15 15 15 16 17 17 22 24
3 5 4 5 2 2 2 4 5 5 5 1 5 8 1 4 7 9 14 13 9 9 9 11 18 20 22 22 22 23 22 21 20 20 18 17 16 17 18 17 16 18 17 17 18 19 19 23 26
4 3 3 1 3 1 1 4 6 6 4 5 3 6 10 4 8 14 17 15 13 11 10 11 18 20 22 23 23 24 24 24 22 22 21 19 18 18 18 16 18 19 19 19 20 20 22 25 27
4 3 5 1 3 1 1 3 5 6 5 4 4 10 2 8 18 22 22 19 17 16 13 13 16 19 22 23 22 24 25 26 26 24 21 20 21 22 21 20 19 19 19 21 22 23 25 27 30
4 3 3 2 2 2 2 4 6 8 9 9 7 5 4 22 27 21 20 18 18 18 17 15 15 17 20 25 26 26 25 26 27 26 25 23 22 23 23 24 21 20 20 21 24 25 28 28 32
4 3 2 2 4 2 2 7 3 7 7 3 7 8 16 22 25 22 22 21 21 18 18 19 19 18 17 17 23 28 27 28 27 27 26 24 22 21 22 22 23 20 19 19 25 28 30 31 33
3 4 1 2 3 3 3 7 7 1 3 8 6 13 19 20 23 23 24 27 27 27 27 23 20 21 21 20 21 24 27 27 29 27 26 24 21 18 19 20 21 19 18 18 24 29 31 34 31
3 3 4 5 6 7 9 7 8 5 11 13 14 17 22 20 23 24 26 27 31 33 33 30 25 24 23 24 22 22 24 27 30 24 22 23 20 19 20 19 20 20 16 16 24 27 36 40 33
2 4 3 3 4 8 8 4 3 6 11 11 14 16 17 20 24 24 26 28 29 29 32 34 33 25 24 24 25 23 25 27 29 29 26 23 22 21 20 19 18 14 15 17 19 25 37 39 36
4 4 0 1 4 7 7 6 4 12 10 15 15 15 16 17 20 26 28 30 33 33 34 35 35 32 26 23 24 28 28 26 29 28 29 27 25 22 20 19 15 18 20 24 19 23 7 41 37
3 5 1 3 8 6 6 6 4 11 14 16 16 15 15 16 20 24 27 28 31 32 33 35 36 35 31 26 23 25 30 30 33 29 28 29 27 25 22 20 18 20 21 24 28 22 27 5 7
2 6 5 1 2 3 7 2 4 4 15 18 14 13 14 16 21 26 32 31 33 32 34 34 34 35 33 30 25 25 27 33 34 35 31 29 30 27 24 22 22 24 25 26 29 27 27 26 16
4 4 9 6 2 2 11 7 5 6 13 13 11 12 12 16 23 26 29 30 32 32 33 36 34 34 35 33 31 26 27 30 35 36 33 32 31 29 26 24 24 27 29 30 30 28 29 30 35
3 2 3 6 3 3 10 12 7 14 10 11 7 8 9 13 20 25 29 30 33 34 34 35 35 34 31 32 33 31 27 31 35 34 36 33 33 32 28 25 27 28 32 36 36 30 31 31 31
9 5 9 5 5 2 5 13 7 12 12 10 6 10 12 13 16 23 29 31 33 31 31 33 36 35 34 32 30 31 30 27 32 34 34 35 36 35 31 28 29 31 29 35 38 34 31 32 29
12 12 8 11 2 10 9 14 15 12 13 8 8 10 12 13 16 22 25 28 30 29 28 30 34 34 35 31 29 30 31 28 29 30 34 35 37 36 36 30 31 34 34 30 31 34 32 34 36
10 11 13 14 7 7 12 15 7 13 9 6 7 9 12 15 19 24 25 27 29 31 31 29 33 33 36 33 27 28 29 33 33 30 29 35 38 39 33 32 34 35 37 34 35 33 35 30 30
11 15 15 7 3 11 15 17 17 13 7 5 5 9 13 15 18 24 27 29 31 33 35 32 32 35 34 32 32 27 28 34 34 28 25 33 37 37 39 33 36 38 35 34 36 35 28 24 40
13 14 9 10 13 17 14 18 15 14 10 5 4 8 12 17 20 20 26 33 33 33 32 35 34 36 37 35 34 32 29 30 30 29 31 30 37 37 40 41 39 41 41 37 41 38 39 25 28
12 5 9 14 13 11 17 8 13 18 14 4 5 11 16 21 21 19 28 34 35 38 37 36 35 35 36 36 32 32 30 25 28 34 36 30 32 39 39 43 37 45 45 42 43 43 38 34 31
6 9 10 16 18 21 13 7 10 18 15 2 7 13 18 21 20 23 29 35 37 39 39 42 38 39 38 35 34 34 32 28 27 29 34 30 30 34 47 44 38 41 45 44 43 45 43 39 39
9 10 18 20 12 6 2 3 7 4 2 3 10 16 22 21 22 25 34 36 38 42 43 41 39 42 37 38 41 36 35 33 31 28 31 26 27 29 32 34 41 37 45 42 44 46 45 43 39
7 9 7 4 5 9 10 8 11 10 5 5 12 19 20 19 21 23 25 33 40 44 45 43 40 43 43 41 42 40 38 35 33 33 26 27 23 31 32 34 35 42 42 43 46 47 44 43 39
1 3 4 7 6 13 14 9 5 13 8 2 13 19 19 21 21 24 29 34 38 41 41 41 42 39 40 39 38 38 40 33 29 33 26 28 18 23 30 32 37 43 44 44 48 46 45 45 41
6 5 4 5 4 6 8 10 6 11 4 7 17 19 19 21 23 25 31 35 39 39 38 40 45 44 44 45 45 43 42 34 31 35 31 26 23 21 21 33 30 34 46 50 42 46 47 46 45
4 5 2 4 5 7 8 19 12 6 8 13 20 20 20 23 25 23 24 35 36 41 41 42 40 41 42 41 39 39 38 40 41 33 32 27 23 22 19 25 32 34 32 45 50 41 47 45 45
5 5 6 4 4 5 9 6 5 4 5 15 19 19 22 23 25 23 27 36 39 41 41 41 40 40 40 38 38 37 35 38 39 40 34 29 26 19 21 21 27 26 35 45 43 44 46 46 44
7 11 14 6 7 8 9 15 14 5 4 13 18 20 22 22 23 23 29 33 35 37 39 39 38 38 37 38 39 39 37 35 34 34 38 30 29 21 22 24 23 24 35 33 48 44 45 48 45
Wind_Direction
340 308 227 231 236 247 63 70 340 347 340 12 331 315 337 319 308 326 30 324 287 276 221 239 213 209 215 214 212 217 222 220 213 217 225 235 235 232 232 232 235 232 233 236 229 230 226 213 202
306 283 227 277 270 337 81 8 353 5 355 331 313 302 283 316 352 324 315 8 286 268 234 220 222 214 215 220 223 223 222 223 220 226 227 233 236 236 237 234 236 236 230 229 234 229 228 214 199
266 235 256 259 308 64 37 9 352 351 325 307 312 305 309 325 344 307 359 328 283 254 242 229 233 223 223 223 226 229 230 230 231 231 235 235 235 236 235 237 241 241 236 227 228 224 231 214 200
281 200 229 260 80 106 342 21 1 335 125 146 337 306 156 281 313 335 321 321 303 260 248 244 243 232 229 228 230 233 238 239 237 238 239 241 237 237 238 237 241 245 242 237 228 217 222 213 198
253 261 247 252 105 85 233 3 344 337 338 338 5 316 323 65 2 345 335 321 315 293 264 249 259 244 236 241 241 239 243 243 241 242 247 247 244 241 242 245 239 244 246 241 231 215 210 209 199
263 283 242 325 67 91 186 4 332 328 334 312 302 327 12 45 11 349 342 331 322 309 291 275 269 257 246 244 244 245 245 247 246 243 246 248 242 243 244 245 245 246 249 244 231 216 207 201 195
291 278 360 350 34 196 56 345 328 343 333 41 343 303 348 13 357 347 343 341 335 323 308 295 284 280 271 251 247 248 247 247 246 243 242 245 249 249 252 250 249 250 252 248 226 215 207 195 189
286 268 262 71 28 37 55 316 354 326 22 25 353 14 356 354 353 359 3 3 352 339 322 309 297 285 277 266 264 251 248 247 243 242 243 241 244 247 249 250 253 249 250 246 219 210 204 193 182
307 245 281 54 308 356 96 334 6 12 294 49 36 29 8 7 15 22 22 20 13 7 353 337 311 296 283 273 264 266 257 246 243 240 241 241 242 244 247 243 244 251 244 237 214 208 199 184 183
279 286 63 25 328 317 335 353 340 339 52 22 9 10 29 28 31 32 28 24 18 15 10 1 335 314 294 278 271 261 258 248 243 234 234 236 233 238 241 237 238 241 239 227 208 200 185 181 177
34 348 45 55 318 325 329 341 333 334 61 22 355 8 36 32 31 30 27 22 17 12 9 4 0 335 311 293 278 274 262 253 244 236 230 230 231 234 234 233 237 229 218 198 198 187 187 179 170
293 68 360 244 301 321 341 318 44 63 67 9 38 52 43 37 33 26 22 16 13 10 5 1 0 357 338 311 292 276 270 260 251 244 234 225 228 229 224 219 218 212 212 189 174 186 175 159 165
240 101 45 303 300 312 331 359 73 73 19 51 71 54 42 38 32 25 18 14 10 7 2 359 356 355 350 334 305 289 271 271 258 252 246 233 227 223 217 217 204 206 205 186 175 157 139 76 143
9 303 277 97 321 292 352 330 197 75 15 79 72 57 42 33 26 19 14 9 7 2 0 354 352 350 348 343 328 301 289 271 266 255 250 243 232 224 215 212 208 201 193 184 188 197 203 204 211
305 297 113 151 210 290 317 193 166 5 31 88 57 44 39 28 24 18 9 4 0 358 356 357 353 349 345 339 335 320 301 288 267 266 253 247 239 230 219 208 202 204 204 193 183 187 183 176 182
210 225 5 129 234 168 325 304 103 33 80 107 69 47 28 24 22 12 6 360 357 352 354 354 350 347 342 337 331 329 315 299 284 265 262 251 241 235 224 209 204 197 192 185 179 174 167 167 172
205 332 315 299 211 213 318 297 318 67 115 118 69 34 16 8 15 7 1 359 352 348 346 350 348 343 339 333 330 324 323 315 293 278 265 255 249 236 231 210 206 191 179 179 178 178 175 171 179
303 303 300 291 36 312 277 279 314 95 123 111 57 27 17 13 9 358 350 353 352 347 342 341 341 338 333 328 326 325 321 318 316 306 271 255 248 244 229 210 200 193 182 179 181 181 189 179 177
299 290 293 290 112 306 304 300 335 123 136 120 51 24 18 17 0 356 353 351 351 349 339 335 337 330 327 323 319 321 319 319 307 308 306 262 247 239 228 218 194 192 189 188 181 178 178 177 177
293 291 298 313 191 310 308 297 134 156 140 120 38 22 14 1 353 351 353 353 348 345 337 328 325 329 318 314 312 310 307 310 310 298 303 294 254 238 232 218 192 195 190 191 183 177 175 181 170
288 302 316 298 305 282 286 283 157 173 153 137 46 5 3 356 353 354 355 348 340 337 331 324 319 319 315 306 305 308 300 304 310 319 306 319 301 244 223 224 200 199 192 191 181 179 181 170 183
297 12 316 304 310 302 317 290 169 181 179 130 23 8 357 352 357 355 348 343 337 328 324 316 310 311 308 301 297 298 300 295 296 304 311 303 294 302 227 219 217 202 197 190 186 184 176 176 182
297 342 303 290 285 298 277 242 258 166 200 103 10 3 358 354 350 350 343 334 330 322 319 313 308 310 303 299 291 293 292 293 291 294 300 308 302 301 317 214 210 210 200 197 186 183 184 178 182
303 287 299 276 268 263 142 260 237 183 181 356 358 358 354 349 345 339 335 326 322 321 317 311 310 306 306 302 298 290 289 292 291 286 292 308 311 291 292 234 211 213 206 192 187 184 185 186 184
261 307 313 298 232 276 152 317 248 142 128 36 356 356 348 344 338 335 330 328 324 320 321 317 317 316 308 307 297 294 291 283 287 283 283 295 303 311 303 285 229 206 198 195 189 188 185 181 184
316 291 263 288 295 294 313 254 294 135 140 25 355 355 347 339 334 331 328 326 322 323 321 322 316 318 322 315 307 296 292 280 284 280 271 280 283 295 311 308 303 204 198 196 186 187 186 184 188
139 215 14 288 261 278 237 239 142 159 214 354 344 349 342 333 330 328 325 324 324 323 323 325 321 314 309 308 309 309 315 293 281 280 274 269 277 279 293 300 273 302 200 193 195 187 185 186 181
264 123 180 201 270 269 268 299 273 187 340 340 345 340 335 329 325 327 327 324 328 329 327 325 321 314 311 310 308 304 306 307 311 280 272 264 273 273 305 301 296 241 232 193 191 190 183 184 184
186 217 222 285 241 263 299 283 114 5 358 345 333 336 331 330 330 329 326 331 330 329 326 324 322 317 313 310 309 308 306 304 304 308 279 265 269 259 275 286 288 281 274 200 187 187 183 183 184
273 244 215 217 216 226 266 275 281 224 355 344 333 332 330 329 327 321 330 328 328 327 327 323 320 316 313 309 310 305 304 303 299 299 300 300 260 250 255 282 293 294 234 261 185 184 183 183 186